Weather History for Grand Forks AFB, ND

Change the Weather History Date:

Saturday, September 7, 2013

  Actual Average Record
Temperature  
Mean Temperature 72 °F -  
Max Temperature 83 °F 73 °F 96 °F (2002)
Min Temperature 61 °F 50 °F 41 °F (2010)
Cooling Degree Days 7    
Growing Degree Days 22 (Base 50)    
Moisture  
Dew Point 57 °F    
Average Humidity 65    
Maximum Humidity 94    
Minimum Humidity 36    
Precipitation  
Precipitation 0.00 in - - ()
Sea Level Pressure  
Sea Level Pressure 30.04 in    
Wind  
Wind Speed 11 mph (NNE)    
Max Wind Speed 16 mph    
Max Gust Speed 23 mph    
Visibility 10 miles    
Events Rain , Thunderstorm    
Averages and records for this station are not official NWS values.
T = Trace of Precipitation, MM = Missing Value Source: NWS Daily Summary

Daily Weather History Graph

Daily Weather History Graph

Search for Another Location

Airport:

Trip Planner

Search our weather history database for the weather conditions in past years. The results will help you decide how hot, cold, wet, or windy it might be!

Date:

Astronomy

Sep. 07, 2013 Rise Set
Actual Time 6:56 AM CDT 7:57 PM CDT
Civil Twilight 6:24 AM CDT 8:29 PM CDT
Nautical Twilight 5:46 AM CDT 9:07 PM CDT
Astronomical Twilight 5:06 AM CDT 9:47 PM CDT
Moon 9:26 AM CDT (9/7) 8:40 PM CDT (9/7)
Length of Visible Light 14h 04m
Length of Day
13h 01m
Waxing Crescent, 5% of the Moon is Illuminated
Sep 7
Waxing Crescent
Sep 12
First Quarter
Sep 19
Full
Sep 26
Last Quarter
Oct 4
New

Hourly Weather History & Observations

Time (CDT) Temp. Heat Index Dew Point Humidity Pressure Visibility Wind Dir Wind Speed Gust Speed Precip Events Conditions
12:58 AM 74.1 °F - 69.1 °F 84% 29.90 in 10.0 mi NNE 10.4 mph - N/A   Clear
1:58 AM 72.0 °F - 65.1 °F 79% 29.93 in 10.0 mi North 11.5 mph - N/A   Clear
2:58 AM 69.8 °F - 56.5 °F 63% 29.94 in 10.0 mi North 12.7 mph - N/A   Scattered Clouds
3:58 AM 67.8 °F - 55.9 °F 66% 29.98 in 10.0 mi North 16.1 mph - N/A   Clear
4:10 AM 66.2 °F - 57.2 °F 73% 29.98 in 10.0 mi NNW 15.0 mph 19.6 mph N/A Thunderstorm Light Drizzle
4:19 AM 64.4 °F - 57.2 °F 77% 29.99 in 10.0 mi NW 13.8 mph - N/A Rain , Thunderstorm Light Thunderstorms and Rain
4:35 AM 64.4 °F - 57.2 °F 77% 30.00 in 10.0 mi NNW 11.5 mph - N/A Rain , Thunderstorm Light Thunderstorms and Rain
4:42 AM 64.4 °F - 57.2 °F 77% 30.00 in 10.0 mi NW 10.4 mph - N/A Rain , Thunderstorm Light Rain
4:58 AM 63.0 °F - 58.6 °F 86% 30.00 in 9.0 mi NW 6.9 mph - 0.00 in Rain Light Rain
5:33 AM 62.6 °F - 60.8 °F 94% 29.99 in 10.0 mi NNW 5.8 mph - N/A Rain Light Rain
5:58 AM 61.9 °F - 60.1 °F 94% 30.00 in 10.0 mi NW 6.9 mph - 0.00 in   Light Drizzle
5:59 AM 62.6 °F - 60.8 °F 94% 30.00 in 10.0 mi NW 6.9 mph - N/A   Scattered Clouds
6:58 AM 62.2 °F - 59.2 °F 90% 30.01 in 10.0 mi North 8.1 mph - 0.00 in   Clear
7:58 AM 62.2 °F - 58.6 °F 88% 30.03 in 10.0 mi North 8.1 mph - N/A   Clear
8:58 AM 64.8 °F - 59.2 °F 82% 30.04 in 10.0 mi North 10.4 mph - N/A   Partly Cloudy
9:58 AM 68.2 °F - 59.7 °F 74% 30.07 in 10.0 mi NNE 13.8 mph - N/A   Scattered Clouds
10:58 AM 71.6 °F - 60.1 °F 67% 30.08 in 10.0 mi NNE 12.7 mph - N/A   Clear
11:58 AM 75.6 °F - 60.3 °F 59% 30.09 in 10.0 mi NNE 16.1 mph - N/A   Clear
12:58 PM 80.2 °F 80.8 °F 58.6 °F 48% 30.07 in 10.0 mi NE 15.0 mph 23.0 mph N/A   Clear
1:58 PM 81.9 °F 81.3 °F 55.6 °F 40% 30.07 in 10.0 mi ENE 16.1 mph - N/A   Clear
2:30 PM 82.4 °F 81.4 °F 53.6 °F 37% 30.07 in 10.0 mi NE 13.8 mph - N/A   Clear
2:58 PM 83.3 °F 82.1 °F 54.0 °F 36% 30.06 in 10.0 mi ENE 13.8 mph - N/A   Clear
3:58 PM 82.0 °F - 52.9 °F 36% 30.06 in 10.0 mi NE 16.1 mph - N/A   Clear
4:58 PM 79.7 °F - 55.6 °F 43% 30.07 in 10.0 mi East 15.0 mph - N/A   Clear
5:58 PM 78.1 °F - 54.3 °F 44% 30.09 in 10.0 mi ENE 13.8 mph - N/A   Clear
6:58 PM 74.8 °F - 52.5 °F 46% 30.10 in 10.0 mi ENE 11.5 mph - N/A   Clear
7:58 PM 72.1 °F - 49.8 °F 45% 30.10 in 10.0 mi ENE 11.5 mph - N/A   Clear
8:58 PM 69.4 °F - 48.7 °F 48% 30.12 in 10.0 mi East 9.2 mph - N/A   Clear
9:58 PM 67.5 °F - 49.1 °F 52% 30.11 in 10.0 mi East 10.4 mph - N/A   Clear
10:58 PM 66.4 °F - 50.5 °F 57% 30.12 in 10.0 mi ENE 6.9 mph - N/A   Clear
11:58 PM 65.1 °F - 51.4 °F 61% 30.11 in 10.0 mi East 6.9 mph - N/A   Clear